When you browse on this site, cookies collect data to enhance your experience and personalize the content and advertising you see.
Visit our Privacy Policy to learn more. By continuing to use the site, you agree to this use of cookies and data.
  • Em Portugal
  • Lista de países
  • Para 7 dias
  • Temperatura da água
  • Mapas de satélite
  • Mapa do tempo
  • Widgets de tempo
  • user-avatar
    Iniciar Sessão

    Previsão horária em Terekli-Mekteb

    Hoje, 27 Junho, Quinta-feira

    Tempo Temperatura Precipitação Vento Pressão Humidade
    00:00 +28°C° 0.1 mm 4 m/s 758 mmHg 61%
    01:00 +28°C° 0 mm 3 m/s 758 mmHg 64%
    02:00 +28°C° 0 mm 3 m/s 757 mmHg 66%
    03:00 +27°C° 0 mm 2 m/s 757 mmHg 69%
    04:00 +27°C° 0 mm 2 m/s 757 mmHg 68%
    05:00 +27°C° 0 mm 1 m/s 757 mmHg 67%
    06:00 +27°C° 0 mm 1 m/s 757 mmHg 66%
    07:00 +29°C° 0 mm 1 m/s 757 mmHg 60%
    08:00 +30°C° 0 mm 2 m/s 757 mmHg 55%
    09:00 +31°C° 0 mm 2 m/s 757 mmHg 49%
    10:00 +32°C° 0 mm 2 m/s 756 mmHg 44%
    11:00 +34°C° 0 mm 2 m/s 756 mmHg 40%
    12:00 +35°C° 0 mm 3 m/s 756 mmHg 35%
    13:00 +36°C° 0 mm 3 m/s 755 mmHg 34%
    14:00 +36°C° 0 mm 3 m/s 755 mmHg 33%
    15:00 +36°C° 0 mm 3 m/s 755 mmHg 32%
    16:00 +36°C° 0 mm 4 m/s 754 mmHg 33%
    17:00 +35°C° 0 mm 5 m/s 754 mmHg 35%
    18:00 +35°C° 0 mm 6 m/s 754 mmHg 36%
    19:00 +34°C° 0 mm 6 m/s 753 mmHg 38%
    20:00 +32°C° 0 mm 6 m/s 753 mmHg 41%
    21:00 +30°C° 0 mm 6 m/s 753 mmHg 43%
    22:00 +29°C° 0 mm 5 m/s 753 mmHg 45%
    23:00 +28°C° 0 mm 5 m/s 753 mmHg 47%

    Amanhã, 28 Junho, Sexta-feira

    Tempo Temperatura Precipitação Vento Pressão Humidade
    00:00 +28°C° 0 mm 5 m/s 753 mmHg 49%
    01:00 +27°C° 0 mm 4 m/s 752 mmHg 52%
    02:00 +27°C° 0 mm 4 m/s 752 mmHg 54%
    03:00 +26°C° 0 mm 3 m/s 752 mmHg 57%
    04:00 +26°C° 0 mm 3 m/s 751 mmHg 58%
    05:00 +26°C° 0 mm 3 m/s 751 mmHg 60%
    06:00 +27°C° 0 mm 3 m/s 751 mmHg 62%
    07:00 +28°C° 0.1 mm 3 m/s 751 mmHg 56%
    08:00 +30°C° 0.1 mm 3 m/s 751 mmHg 51%
    09:00 +31°C° 0.1 mm 2 m/s 751 mmHg 46%
    10:00 +34°C° 0 mm 2 m/s 750 mmHg 41%
    11:00 +34°C° 0 mm 1 m/s 750 mmHg 37%
    12:00 +35°C° 0 mm 1 m/s 749 mmHg 33%
    13:00 +36°C° 0 mm 1 m/s 749 mmHg 31%
    14:00 +37°C° 0 mm 1 m/s 748 mmHg 29%
    15:00 +37°C° 0 mm 1 m/s 748 mmHg 28%
    16:00 +38°C° 0.2 mm 2 m/s 748 mmHg 29%
    17:00 +37°C° 0.2 mm 3 m/s 748 mmHg 30%
    18:00 +37°C° 0.2 mm 4 m/s 747 mmHg 31%
    19:00 +35°C° 1.2 mm 4 m/s 748 mmHg 38%
    20:00 +32°C° 1.2 mm 4 m/s 748 mmHg 45%
    21:00 +29°C° 1.2 mm 4 m/s 749 mmHg 52%
    22:00 +28°C° 0.6 mm 6 m/s 749 mmHg 60%
    23:00 +27°C° 0.6 mm 7 m/s 749 mmHg 68%

    Depois de amanhã, 29 Junho, Sábado

    Tempo Temperatura Precipitação Vento Pressão Humidade
    00:00 +26°C° 0.6 mm 9 m/s 750 mmHg 76%
    01:00 +24°C° 2.4 mm 8 m/s 750 mmHg 78%
    02:00 +24°C° 2.4 mm 6 m/s 750 mmHg 81%
    03:00 +23°C° 2.4 mm 5 m/s 750 mmHg 83%
    04:00 +23°C° 0.2 mm 4 m/s 750 mmHg 81%
    05:00 +25°C° 0.2 mm 4 m/s 750 mmHg 78%
    06:00 +25°C° 0.2 mm 3 m/s 750 mmHg 76%
    07:00 +26°C° 0.2 mm 4 m/s 750 mmHg 69%
    08:00 +27°C° 0.2 mm 4 m/s 750 mmHg 62%
    09:00 +28°C° 0.2 mm 4 m/s 750 mmHg 55%
    10:00 +28°C° 0.1 mm 4 m/s 750 mmHg 53%
    11:00 +28°C° 0.1 mm 5 m/s 750 mmHg 52%
    12:00 +28°C° 0.1 mm 5 m/s 750 mmHg 51%
    13:00 +27°C° 0.4 mm 6 m/s 750 mmHg 59%
    14:00 +24°C° 0.4 mm 7 m/s 750 mmHg 66%
    15:00 +23°C° 0.4 mm 9 m/s 750 mmHg 73%
    16:00 +22°C° 0.9 mm 8 m/s 751 mmHg 76%
    17:00 +22°C° 0.9 mm 7 m/s 751 mmHg 79%
    18:00 +21°C° 0.9 mm 7 m/s 751 mmHg 81%
    19:00 +21°C° 1.1 mm 6 m/s 752 mmHg 80%
    20:00 +21°C° 1.1 mm 5 m/s 752 mmHg 79%
    21:00 +21°C° 1.1 mm 4 m/s 753 mmHg 78%
    22:00 +21°C° 0.1 mm 5 m/s 753 mmHg 77%
    23:00 +21°C° 0.1 mm 5 m/s 753 mmHg 76%

    30 Junho, Domingo

    Tempo Temperatura Precipitação Vento Pressão Humidade
    00:00 +20°C° 0.1 mm 6 m/s 753 mmHg 75%
    01:00 +20°C° 0 mm 6 m/s 753 mmHg 74%
    02:00 +20°C° 0 mm 7 m/s 753 mmHg 74%
    03:00 +18°C° 0 mm 7 m/s 753 mmHg 73%
    04:00 +18°C° 0 mm 7 m/s 753 mmHg 73%
    05:00 +18°C° 0 mm 7 m/s 753 mmHg 72%
    06:00 +18°C° 0 mm 7 m/s 754 mmHg 72%
    07:00 +21°C° 0 mm 6 m/s 754 mmHg 66%
    08:00 +22°C° 0 mm 6 m/s 754 mmHg 59%
    09:00 +23°C° 0 mm 6 m/s 754 mmHg 53%
    10:00 +25°C° 0 mm 5 m/s 754 mmHg 49%
    11:00 +26°C° 0 mm 5 m/s 754 mmHg 46%
    12:00 +27°C° 0 mm 5 m/s 754 mmHg 42%
    13:00 +27°C° 0 mm 5 m/s 753 mmHg 39%
    14:00 +27°C° 0 mm 4 m/s 753 mmHg 37%
    15:00 +28°C° 0 mm 4 m/s 753 mmHg 34%
    16:00 +27°C° 0 mm 5 m/s 753 mmHg 36%
    17:00 +26°C° 0 mm 6 m/s 754 mmHg 38%
    18:00 +24°C° 0 mm 8 m/s 754 mmHg 40%
    19:00 +22°C° 0.3 mm 7 m/s 755 mmHg 48%
    20:00 +20°C° 0.3 mm 7 m/s 755 mmHg 56%
    21:00 +17°C° 0.3 mm 6 m/s 755 mmHg 64%
    22:00 +17°C° 0.3 mm 6 m/s 756 mmHg 67%
    23:00 +16°C° 0.3 mm 6 m/s 756 mmHg 69%

    1 Julho, Segunda-feira

    Tempo Temperatura Precipitação Vento Pressão Humidade
    00:00 +16°C° 0.3 mm 6 m/s 756 mmHg 72%
    01:00 +16°C° 0.4 mm 5 m/s 756 mmHg 71%
    02:00 +16°C° 0.4 mm 5 m/s 757 mmHg 71%
    03:00 +17°C° 0.4 mm 4 m/s 757 mmHg 71%
    04:00 +17°C° 0 mm 4 m/s 757 mmHg 69%
    05:00 +17°C° 0 mm 4 m/s 757 mmHg 67%
    06:00 +18°C° 0 mm 4 m/s 757 mmHg 66%
    07:00 +19°C° 0 mm 4 m/s 757 mmHg 59%
    08:00 +20°C° 0 mm 4 m/s 757 mmHg 53%
    09:00 +22°C° 0 mm 4 m/s 756 mmHg 47%
    10:00 +22°C° 0 mm 4 m/s 756 mmHg 44%
    11:00 +23°C° 0 mm 5 m/s 756 mmHg 41%
    12:00 +25°C° 0 mm 5 m/s 756 mmHg 38%
    13:00 +25°C° 0 mm 5 m/s 756 mmHg 37%
    14:00 +25°C° 0 mm 4 m/s 756 mmHg 36%
    15:00 +25°C° 0 mm 4 m/s 755 mmHg 35%
    16:00 +25°C° 0 mm 5 m/s 756 mmHg 36%
    17:00 +25°C° 0 mm 5 m/s 756 mmHg 36%
    18:00 +25°C° 0 mm 5 m/s 756 mmHg 36%
    19:00 +23°C° 0 mm 5 m/s 757 mmHg 37%
    20:00 +22°C° 0 mm 5 m/s 757 mmHg 39%
    21:00 +22°C° 0 mm 4 m/s 757 mmHg 40%
    22:00 +21°C° 0 mm 5 m/s 757 mmHg 44%
    23:00 +20°C° 0 mm 6 m/s 757 mmHg 48%

    2 Julho, Terça-feira

    Tempo Temperatura Precipitação Vento Pressão Humidade
    00:00 +18°C° 0 mm 7 m/s 757 mmHg 52%
    01:00 +18°C° 0 mm 7 m/s 757 mmHg 54%
    02:00 +17°C° 0 mm 7 m/s 757 mmHg 56%
    03:00 +17°C° 0 mm 8 m/s 757 mmHg 58%
    04:00 +17°C° 0 mm 8 m/s 757 mmHg 59%
    05:00 +17°C° 0 mm 8 m/s 757 mmHg 60%
    06:00 +18°C° 0 mm 8 m/s 757 mmHg 61%
    07:00 +19°C° 0 mm 9 m/s 757 mmHg 57%
    08:00 +22°C° 0 mm 9 m/s 757 mmHg 52%
    09:00 +23°C° 0 mm 10 m/s 756 mmHg 48%
    10:00 +24°C° 0.1 mm 10 m/s 756 mmHg 47%
    11:00 +26°C° 0.1 mm 11 m/s 756 mmHg 47%
    12:00 +27°C° 0.1 mm 11 m/s 756 mmHg 46%
    13:00 +27°C° 0.2 mm 10 m/s 756 mmHg 47%
    14:00 +28°C° 0.2 mm 9 m/s 756 mmHg 48%
    15:00 +28°C° 0.2 mm 8 m/s 755 mmHg 49%
    16:00 +28°C° 0.3 mm 8 m/s 755 mmHg 50%
    17:00 +28°C° 0.3 mm 8 m/s 755 mmHg 52%
    18:00 +28°C° 0.3 mm 8 m/s 755 mmHg 53%
    19:00 +27°C° 0.1 mm 7 m/s 756 mmHg 56%
    20:00 +27°C° 0.1 mm 7 m/s 756 mmHg 59%
    21:00 +26°C° 0.1 mm 6 m/s 756 mmHg 61%
    22:00 +24°C° 0.1 mm 6 m/s 755 mmHg 63%
    23:00 +24°C° 0.1 mm 6 m/s 755 mmHg 64%
    Mostrar mais